GLO1529 SBIL-SBKG

Flight info

Callsign GLO1529
Flight time N/A
Altitude 37000
Route VUREK UZ73 OPMUD DCT MUDAR
Aircraft B738/M-SDE2E3FGHIRWXY/LB1

Departure

Time 2026-04-15 11:22
Airport Bahia - Jorge Amado Airport (SBIL)

Arrival

Time N/A
Airport Presidente João Suassuna Airport (SBKG)
Time Latitude Longitude Altitude Speed Heading
2026-04-15 10:55 -14.81445 -39.03207 19 ft 0 kts 309°
2026-04-15 11:15 -14.81454 -39.03197 21 ft 2 kts 340°
2026-04-15 11:15 -14.81470 -39.03195 20 ft 2 kts
2026-04-15 11:15 -14.81483 -39.03202 19 ft 2 kts 84°
2026-04-15 11:16 -14.81484 -39.03213 22 ft 1 kts 88°
2026-04-15 11:17 -14.81484 -39.03198 19 ft 5 kts 88°
2026-04-15 11:18 -14.81482 -39.03146 18 ft 8 kts 89°
2026-04-15 11:18 -14.81486 -39.03097 18 ft 5 kts 120°
2026-04-15 11:18 -14.81499 -39.03088 20 ft 1 kts 155°
2026-04-15 11:18 -14.81511 -39.03084 17 ft 3 kts 168°
2026-04-15 11:19 -14.81542 -39.03082 17 ft 5 kts 173°
2026-04-15 11:19 -14.81580 -39.03047 17 ft 10 kts 107°
2026-04-15 11:19 -14.81582 -39.02956 17 ft 15 kts 88°
2026-04-15 11:19 -14.81579 -39.02832 17 ft 19 kts 88°
2026-04-15 11:20 -14.81576 -39.02707 18 ft 13 kts 88°
2026-04-15 11:20 -14.81599 -39.02645 19 ft 6 kts 122°
2026-04-15 11:20 -14.81590 -39.02604 21 ft 6 kts 29°
2026-04-15 11:20 -14.81580 -39.02611 20 ft 4 kts 314°
2026-04-15 11:21 -14.81574 -39.02664 20 ft 10 kts 268°
2026-04-15 11:21 -14.81578 -39.02792 18 ft 48 kts 268°
2026-04-15 11:21 -14.81596 -39.03434 19 ft 129 kts 268°
2026-04-15 11:21 -14.81666 -39.04499 468 ft 157 kts 262°
2026-04-15 11:22 -14.81701 -39.05672 1257 ft 170 kts 273°
2026-04-15 11:22 -14.81241 -39.06826 2088 ft 185 kts 310°
2026-04-15 11:22 -14.80171 -39.07629 2738 ft 200 kts 337°
2026-04-15 11:22 -14.78768 -39.07992 3328 ft 213 kts 360°
2026-04-15 11:23 -14.77294 -39.07790 3948 ft 220 kts 22°
2026-04-15 11:23 -14.75910 -39.06969 4240 ft 240 kts 43°
2026-04-15 11:23 -14.74568 -39.05780 4633 ft 267 kts 39°
2026-04-15 11:23 -14.72838 -39.04977 5358 ft 280 kts 11°
2026-04-15 11:24 -14.70898 -39.05088 6308 ft 283 kts 344°
2026-04-15 11:24 -14.69155 -39.06071 7056 ft 291 kts 317°
2026-04-15 11:24 -14.68000 -39.07759 7988 ft 288 kts 291°
2026-04-15 11:24 -14.67613 -39.09791 8829 ft 290 kts 272°
2026-04-15 11:25 -14.67593 -39.11879 9689 ft 293 kts 269°
2026-04-15 11:25 -14.67638 -39.13994 10447 ft 298 kts 269°
2026-04-15 11:25 -14.67708 -39.16221 10674 ft 323 kts 269°
2026-04-15 11:25 -14.67798 -39.18615 10935 ft 343 kts 269°
2026-04-15 11:26 -14.67905 -39.21106 11501 ft 351 kts 268°
2026-04-15 11:26 -14.68049 -39.23639 12208 ft 354 kts 268°
2026-04-15 11:26 -14.68203 -39.26182 12954 ft 356 kts 268°
2026-04-15 11:26 -14.68365 -39.28747 13635 ft 359 kts 268°
2026-04-15 11:27 -14.68534 -39.31342 14238 ft 363 kts 268°
2026-04-15 11:27 -14.68645 -39.33069 14622 ft 366 kts 268°
2026-04-15 11:27 -14.68812 -39.35702 15210 ft 368 kts 267°
2026-04-15 11:27 -14.68971 -39.38361 15770 ft 372 kts 267°
2026-04-15 11:28 -14.69114 -39.41045 16316 ft 376 kts 267°
2026-04-15 11:28 -14.69238 -39.43792 16902 ft 379 kts 267°
2026-04-15 11:28 -14.69341 -39.46531 17422 ft 383 kts 267°
2026-04-15 11:28 -14.69427 -39.49295 17937 ft 387 kts 267°
2026-04-15 11:29 -14.69498 -39.52091 18453 ft 391 kts 267°
2026-04-15 11:29 -14.69560 -39.54908 18931 ft 393 kts 267°
2026-04-15 11:29 -14.69617 -39.57735 19471 ft 394 kts 267°
2026-04-15 11:29 -14.69669 -39.60565 19974 ft 395 kts 267°
2026-04-15 11:30 -14.69719 -39.63415 20455 ft 398 kts 268°
2026-04-15 11:30 -14.69766 -39.66282 20937 ft 400 kts 268°
2026-04-15 11:30 -14.69811 -39.69170 21430 ft 402 kts 268°
2026-04-15 11:30 -14.69856 -39.72067 21902 ft 405 kts 268°
2026-04-15 11:31 -14.69900 -39.74981 22373 ft 407 kts 268°
2026-04-15 11:31 -14.69942 -39.77921 22838 ft 409 kts 268°
2026-04-15 11:31 -14.69982 -39.80866 23321 ft 411 kts 268°
2026-04-15 11:31 -14.70020 -39.83828 23757 ft 413 kts 268°
2026-04-15 11:32 -14.70058 -39.86847 24121 ft 416 kts 268°
2026-04-15 11:32 -14.70096 -39.89840 24457 ft 419 kts 268°
2026-04-15 11:32 -14.70135 -39.92861 24800 ft 421 kts 268°
2026-04-15 11:32 -14.70177 -39.95894 25178 ft 423 kts 268°
2026-04-15 11:33 -14.70220 -39.98940 25538 ft 425 kts 268°
2026-04-15 11:33 -14.70266 -40.02000 25868 ft 428 kts 268°
2026-04-15 11:33 -14.70314 -40.05078 26208 ft 430 kts 268°
2026-04-15 11:33 -14.70364 -40.08185 26537 ft 433 kts 268°
2026-04-15 11:34 -14.70416 -40.11301 26848 ft 435 kts 268°
2026-04-15 11:34 -14.70469 -40.14443 27157 ft 438 kts 268°
2026-04-15 11:34 -14.70523 -40.17596 27471 ft 440 kts 268°
2026-04-15 11:34 -14.70578 -40.20765 27777 ft 442 kts 268°
2026-04-15 11:35 -14.70634 -40.23960 28072 ft 445 kts 268°
2026-04-15 11:35 -14.70689 -40.27160 28369 ft 447 kts 268°
2026-04-15 11:35 -14.70745 -40.30375 28642 ft 449 kts 268°
2026-04-15 11:35 -14.70800 -40.33656 28938 ft 451 kts 268°
2026-04-15 11:36 -14.70854 -40.36907 29209 ft 453 kts 268°
2026-04-15 11:36 -14.70906 -40.40174 29475 ft 455 kts 268°
2026-04-15 11:36 -14.70957 -40.43450 29731 ft 457 kts 268°
2026-04-15 11:36 -14.71006 -40.46740 29980 ft 460 kts 268°
2026-04-15 11:37 -14.71054 -40.50054 30204 ft 462 kts 268°
2026-04-15 11:37 -14.71100 -40.53368 30415 ft 463 kts 268°
2026-04-15 11:37 -14.71143 -40.56702 30642 ft 464 kts 268°
2026-04-15 11:37 -14.71182 -40.60045 30865 ft 466 kts 268°
2026-04-15 11:38 -14.71218 -40.63398 31101 ft 466 kts 268°
2026-04-15 11:38 -14.71249 -40.66743 31421 ft 465 kts 268°
2026-04-15 11:38 -14.71274 -40.70071 31792 ft 462 kts 267°
2026-04-15 11:38 -14.71292 -40.73383 32129 ft 461 kts 267°
2026-04-15 11:39 -14.71305 -40.76698 32432 ft 460 kts 268°
2026-04-15 11:39 -14.71312 -40.80005 32747 ft 459 kts 268°
2026-04-15 11:39 -14.71312 -40.83300 33089 ft 458 kts 267°
2026-04-15 11:39 -14.71304 -40.86576 33453 ft 456 kts 268°
2026-04-15 11:40 -14.71290 -40.89852 33801 ft 455 kts 267°
2026-04-15 11:40 -14.71269 -40.93113 34110 ft 454 kts 268°
2026-04-15 11:40 -14.71242 -40.96374 34370 ft 453 kts 268°
2026-04-15 11:40 -14.71210 -40.99622 34646 ft 452 kts 268°
2026-04-15 11:41 -14.71172 -41.02863 34918 ft 451 kts 268°
2026-04-15 11:41 -14.71130 -41.06097 35202 ft 449 kts 268°
2026-04-15 11:41 -14.71085 -41.09316 35474 ft 448 kts 268°
2026-04-15 11:41 -14.71035 -41.12534 35699 ft 448 kts 268°
2026-04-15 11:42 -14.70982 -41.15748 35918 ft 447 kts 268°
2026-04-15 11:42 -14.70927 -41.18956 36160 ft 446 kts 268°
2026-04-15 11:42 -14.70868 -41.22204 36407 ft 446 kts 268°
2026-04-15 11:42 -14.70806 -41.25399 36645 ft 445 kts 268°
2026-04-15 11:43 -14.70742 -41.28591 36879 ft 444 kts 268°
2026-04-15 11:43 -14.70672 -41.31775 37076 ft 444 kts 268°
2026-04-15 11:43 -14.70308 -41.38190 37060 ft 447 kts 270°
2026-04-15 11:44 -14.69851 -41.44606 37059 ft 444 kts 270°
2026-04-15 11:44 -14.69000 -41.50902 37037 ft 449 kts 290°
2026-04-15 11:45 -14.67379 -41.53673 37066 ft 456 kts 306°
2026-04-15 11:45 -14.65073 -41.55954 37076 ft 463 kts 321°
2026-04-15 11:45 -14.62243 -41.57597 37063 ft 473 kts 336°
2026-04-15 11:45 -14.59028 -41.58431 37063 ft 482 kts 353°
2026-04-15 11:46 -14.55664 -41.58323 37076 ft 488 kts
2026-04-15 11:46 -14.52388 -41.57357 37064 ft 492 kts 24°
2026-04-15 11:46 -14.49432 -41.55592 37077 ft 492 kts 36°
2026-04-15 11:46 -14.46676 -41.53471 37059 ft 495 kts 39°
2026-04-15 11:47 -14.41316 -41.48992 37035 ft 493 kts 40°
2026-04-15 11:47 -14.36041 -41.44564 37043 ft 486 kts 40°
2026-04-15 11:48 -14.30743 -41.40223 37039 ft 485 kts 39°